Regional Weather Roundup
Issued by NWS

Home | Current Version | Previous Version | Text Only | Print | Product List | Glossary On
Versions: 1 2 3 4 5 6 7 8 9 10 11 12 13 14 15 16 17 18 19 20 21 22 23 24 25 26 27 28 29 30 31 32 33 34 35 36 37 38 39 40 41 42 43 44 45 46 47 48 49 50
000
ASUS44 KFWD 311515
RWRTX
NORTH TEXAS HOURLY WEATHER ROUNDUP
NATIONAL WEATHER SERVICE FORT WORTH TX
1000 AM CDT FRI OCT 31 2014

NOTE: "FAIR" INDICATES FEW OR NO CLOUDS BELOW 12,000 FEET WITH NO
SIGNIFICANT WEATHER AND/OR OBSTRUCTIONS TO VISIBILITY.

TXZ118-119-311600-
DALLAS/FORT WORTH METROPLEX

CITY           SKY/WX    TMP DP  RH WIND       PRES   REMARKS
DFW AIRPORT    SUNNY     59  42  53 N20G25    30.32R
DALLAS LOVE    MOSUNNY   58  41  53 N17       30.32R
FTW MEACHAM    SUNNY     59  41  51 N20G28    30.33R
DAL-EXECUTIVE  SUNNY     60  41  49 N14G25    30.30R
FTW-ALLIANCE   SUNNY     57  40  52 N17G26    30.33R
FTW-NAS-JRB    SUNNY     58  43  57 N12       30.38R
FTW-SPINKS     SUNNY     57  41  54 N14G28    30.34
ARLINGTON      SUNNY     60  41  49 N17       30.32R
GRAND PRAIRIE  SUNNY     59  45  58 MISG      30.33R
ADDISON        SUNNY     55  41  58 N16G29    30.31R
MESQUITE       SUNNY     57  43  58 N16G28    30.30R
LANCASTER      SUNNY     59  39  48 N16G22    30.31R
$$

TXZ091>094-102>105-117-120-121-131>134-311600-
NORTH CENTRAL TEXAS

CITY           SKY/WX    TMP DP  RH WIND       PRES   REMARKS
SHRMAN/DENISON SUNNY     55  45  67 N17G26    30.35R
GAINESVILLE    SUNNY     54  41  61 N14       30.37R
BOWIE          SUNNY     53  40  63 N15G21    30.37R
BRIDGEPORT     SUNNY     56  41  57 N14G21    30.38R
DECATUR        SUNNY     55  39  54 N13G20    30.36R
DENTON         SUNNY     57  41  55 N17G26    30.33R
MCKINNEY       LGT RAIN  57  41  55 N21       30.31R
GREENVILLE     SUNNY     57  41  54 N14G20    30.30R
ROCKWALL       SUNNY     58  42  56 N13G23    30.29R
TERRELL        SUNNY     60  42  51 N20       30.30R
WAXAHACHIE     SUNNY     59  43  55 N18       30.32R
GRANBURY       SUNNY     58  46  64 N10       30.35R
$$

TXZ083>090-098>101-113>116-127>130-139>142-154-155-311600-
WESTERN NORTH TEXAS

CITY           SKY/WX    TMP DP  RH WIND       PRES   REMARKS
WICHITA FALLS  SUNNY     52  38  58 NE16      30.41R
WF-KICKAPOO    SUNNY     53  37  55 N17G25    30.42R
VERNON         SUNNY     54  36  50 N14       30.44R
ABILENE        SUNNY     56  37  49 N8        30.40R
ABILENE-DYESS  SUNNY     57  37  47 NE13G21   30.39R
BRECKENRIDGE   SUNNY     57  37  45 NE14G21   30.40R
GRAHAM         SUNNY     56  40  55 N13G21    30.38R
MINERAL WELLS  SUNNY     56  40  55 N14       30.35R
STEPHENVILLE   SUNNY     57  40  52 N15       30.37R
COMANCHE       SUNNY     56  45  64 N10       30.37R
BROWNWOOD      SUNNY     59  37  44 NE15      30.37R
COLEMAN        SUNNY     60  40  48 NE14      30.38R
BRADY          SUNNY     61  39  44 NE13      30.35R
$$

TXZ143>147-156>162-174-175-311600-
CENTRAL TEXAS

CITY           SKY/WX    TMP DP  RH WIND       PRES   REMARKS
WACO           SUNNY     61  44  53 N12       30.31R
WACO-TSTC      SUNNY     63  45  51 N13         N/A
WACO-MCGREGOR  SUNNY     61  43  51 N14       30.32R
HILLSBORO      SUNNY     60  43  53 N17G29    30.30R
CORSICANA      LGT RAIN  62  42  47 N9G21     30.28R
MEXIA          SUNNY     60  44  54 N13       30.27R
HEARNE         SUNNY     61  48  62 NW10      30.27R
CAMERON        SUNNY     63  46  52 N13G22    30.27R
TEMPLE         SUNNY     63  41  45 N13       30.30R
KILLEEN        SUNNY     61  44  53 N15       30.31R
KILLEEN-SKYLRK SUNNY     63  43  48 N13       30.28R
GATESVILLE     SUNNY     61  41  48 N12       30.34R
HAMILTON       SUNNY     60  42  52 N9G18     30.34R
LAMPASAS       SUNNY     60  47  60 N8        30.31R
$$

TXZ095>097-106>112-122>126-135>138-148>153-164>167-311600-
EAST TEXAS

CITY           SKY/WX    TMP DP  RH WIND       PRES   REMARKS
PARIS          SUNNY     55  39  54 N17       30.28R
SULPHUR SPRNGS SUNNY     58  44  59 N17       30.31R
MOUNT PLEASANT SUNNY     59  44  56 N10G16    30.28R
MINEOLA        SUNNY     59  45  58 N9        30.28R
TYLER          SUNNY     60  45  57 N13G20    30.25R
LONGVIEW       SUNNY     61  46  57 N15       30.22R
MARSHALL       SUNNY     61  47  61 N10       30.24R
ATHENS         SUNNY     59  43  55 N10G16    30.25R
PALESTINE      SUNNY     62  46  57 N12G18    30.25R
JACKSONVILLE   SUNNY     61  44  53 N7        30.24R
HENDERSON      SUNNY     60  45  57 N8G18     30.23R
NACOGDOCHES    SUNNY     63  45  51 N12G18    30.21R
LUFKIN         SUNNY     65  47  52 N7        30.20R
$$

SUPPLEMENTAL OBSERVATIONS (CENTRAL)

CITY           SKY/WX    TMP DP  RH WIND       PRES   REMARKS
LAKE TEXOMA      N/A     54  39  58 N16         N/A
PAT MAYSE LAKE   N/A     55  41  58 NW14        N/A
GREENVILLE       N/A     57  41  54 N16G22      N/A
CEDAR HILL       N/A     59  41  51 N10G18      N/A
ATHENS           N/A     63  45  51 N3          N/A
PALESTINE        N/A     63  45  51 VRB10       N/A
LAKE LIMESTONE   N/A     64  45  48 N13         N/A
MCGREGOR         N/A     64  43  45 N8G17       N/A
TEMPLE           N/A     64  41  42 VRB5G16     N/A
$$

SUPPLEMENTAL OBSERVATIONS (WEST)

CITY           SKY/WX    TMP DP  RH WIND       PRES   REMARKS
MILLERS CREEK    N/A     55  39  54 NE9         N/A
POSSUM KINGDOM   N/A     57  36  44 N10         N/A
GRANBURY         N/A     57  43  58 N12         N/A
HAMBY            N/A     59  37  44 NE14        N/A
IVIE RESERVOIR   N/A     63  36  36 NE15        N/A
COLORADO BEND    N/A     61  45  55 VRB6        N/A
$$

SUPPLEMENTAL OBSERVATIONS (EAST)

CITY           SKY/WX    TMP DP  RH WIND       PRES   REMARKS
LUFKIN           N/A     64  46  52 MISG        N/A
N SABINE NF      N/A     57  50  77 MISG        N/A
$$

SUPPLEMENTAL OBSERVATIONS ARE A COLLECTION OF AUTOMATED INSTRUMENTS
THAT ARE MAINTAINED BY A VARIETY OF FEDERAL AND STATE AGENCIES.
CERTAIN ELEMENTS...SUCH AS HUMIDITY VALUES AND SUSTAINED WIND
SPEEDS...MAY BE APPROXIMATED.




USA.gov is the U.S. government's official web portal to all federal, state and local government web resources and services.